Location: Vihti�l�
(61.3833°N, 23.0667°E)
Time: 03:12:42
(UTC+00:00)

Cosmos 2082 Rocket - Pass Details

Date: 29 November 2020
Orbit: 831 x 855 km, 71.0° (Epoch: 19 January)

Event Time Altitude Azimuth Distance (km) Brightness Sun altitude
Exits shadow 03:15:11 34° 344° (NNW) 1,374 3.1 -26.1°
Maximum altitude 03:17:01 44° 28° (NNE) 1,161 3.0 -25.8°
Drops below altitude 10° 03:22:29 10° 100° (E) 2,486 5.6 -25.2°
Sets 03:25:03 0° 107° (ESE) 3,423 6.6 -24.9°
